Kirby, Ohio
Current Conditions -  °F | °C
As of 1:53 AM on Thursday 23 Oct 2014 (Local Time) from KFDY Reporting Station
Overcast Overcast  
Wind Chill: 42°   Ceiling: 2800
Heat Index: 44°   Visibility: 10mi
Dew Point: 39°   Wind: 5mph
Humidity: 82%   Direction: 290°WNW
Pressure: 30.26"   Gusts: NA
Location:  40.81°N, 83.42°W
Report Text: KFDY 230553Z AUTO 29004KT 10SM OVC028 07/04 A3026 RMK AO2 SLP247 T00670039 10083 20061 53001
Loading
Personal Weather Stations






























Interactive Weather Map
Tropical Storm Tracking
New forecast layout! Learn more

10-Day Weather Forecast

Advertisements
Track Severe Weather on mobile